AL7BX-WX Weather Reports


Display with metric or nautical units.
time (UTC)temp
F
wind
direction
speed
MPH
gust
MPH
rain 1hr
in
rain 24hr
in
rain mn
in
humidity
%
barometer
mb
20260904005403 78 183 7.0 17.0 0.00 0.00 0.00 16
20260904004503 79 180 8.0 18.0 0.00 0.00 0.00 17
20260904003603 79 158 7.0 21.0 0.00 0.00 0.00 16
20260904002703 79 166 7.0 13.0 0.00 0.00 0.00 16
20260904001803 80 168 8.0 19.0 0.00 0.00 0.00 16
20260904001112 80 167 9.0 21.0 0.00 0.00 0.00 17
20260904000003 80 177 10.0 20.0 0.00 0.00 0.00 16
20260903235403 80 185 11.0 21.0 0.00 0.00 0.00 16
20260903234503 80 196 10.0 23.0 0.00 0.00 0.00 17
20260903233814 80 194 9.0 19.0 0.00 0.00 0.00 16
20260903232703 80 183 11.0 25.0 0.00 0.00 0.00 16
20260903231803 80 197 10.0 20.0 0.00 0.00 0.00 17
20260903230903 80 202 11.0 23.0 0.00 0.00 0.00 17
20260903230003 81 190 10.0 24.0 0.00 0.00 0.00 17
20260903225403 81 186 10.0 22.0 0.00 0.00 0.00 17
20260903224503 82 164 9.0 21.0 0.00 0.00 0.00 17
20260903223603 81 179 11.0 22.0 0.00 0.00 0.00 17
20260903222704 81 193 12.0 22.0 0.00 0.00 0.00 17
20260903222012 81 185 11.0 25.0 0.00 0.00 0.00 18
20260903221114 81 178 10.0 23.0 0.00 0.00 0.00 18
20260903220003 81 176 10.0 21.0 0.00 0.00 0.00 17
20260903215403 82 180 9.0 19.0 0.00 0.00 0.00 19
20260903214503 81 185 10.0 20.0 0.00 0.00 0.00 19
20260903213603 81 185 11.0 22.0 0.00 0.00 0.00 19
20260903212703 81 196 11.0 21.0 0.00 0.00 0.00 19
20260903211803 80 199 11.0 25.0 0.00 0.00 0.00 21
20260903210903 80 199 12.0 21.0 0.00 0.00 0.00 20
20260903210003 80 207 11.0 24.0 0.00 0.00 0.00 20
20260903205403 80 192 10.0 24.0 0.00 0.00 0.00 22
20260903204503 81 193 11.0 21.0 0.00 0.00 0.00 22
20260903203603 81 183 10.0 17.0 0.00 0.00 0.00 20
20260903202703 81 177 10.0 18.0 0.00 0.00 0.00 20
20260903201803 80 167 10.0 24.0 0.00 0.00 0.00 22
20260903200903 80 168 11.0 28.0 0.00 0.00 0.00 22
20260903200003 80 155 10.0 19.0 0.00 0.00 0.00 21
20260903195614 80 160 9.0 19.0 0.00 0.00 0.00 21
20260903194503 79 145 10.0 19.0 0.00 0.00 0.00 22
20260903193812 79 152 11.0 22.0 0.00 0.00 0.00 22
20260903192703 79 167 11.0 24.0 0.00 0.00 0.00 22
20260903191803 78 181 11.0 29.0 0.00 0.00 0.00 24
20260903190903 78 155 11.0 25.0 0.00 0.00 0.00 23
20260903190003 78 159 12.0 23.0 0.00 0.00 0.00 23
20260903185403 78 155 11.0 23.0 0.00 0.00 0.00 22
20260903184503 77 171 11.0 23.0 0.00 0.00 0.00 24
20260903183603 77 171 11.0 22.0 0.00 0.00 0.00 24
20260903182703 76 173 12.0 22.0 0.00 0.00 0.00 23
20260903181803 76 182 12.0 24.0 0.00 0.00 0.00 24
20260903180903 76 177 10.0 21.0 0.00 0.00 0.00 26
20260903180003 76 177 11.0 23.0 0.00 0.00 0.00 24
20260903175403 75 178 12.0 23.0 0.00 0.00 0.00 23
20260903174503 75 178 11.0 23.0 0.00 0.00 0.00 24
20260903173603 75 176 10.0 23.0 0.00 0.00 0.00 25
20260903172703 75 195 10.0 20.0 0.00 0.00 0.00 26
20260903171803 75 180 9.0 21.0 0.00 0.00 0.00 25
20260903171114 74 182 10.0 21.0 0.00 0.00 0.00 25
20260903170213 74 177 11.0 25.0 0.00 0.00 0.00 24
20260903165403 74 172 9.0 18.0 0.00 0.00 0.00 24
20260903164503 74 170 9.0 19.0 0.00 0.00 0.00 27
20260903163813 73 165 9.0 19.0 0.00 0.00 0.00 26
20260903162704 73 171 10.0 20.0 0.00 0.00 0.00 29
20260903161803 72 170 10.0 20.0 0.00 0.00 0.00 28
20260903160903 72 178 8.0 18.0 0.00 0.00 0.00 29
20260903160003 71 198 7.0 14.0 0.00 0.00 0.00 30
20260903155403 70 188 8.0 21.0 0.00 0.00 0.00 29
20260903154503 70 185 7.0 16.0 0.00 0.00 0.00 28
20260903153603 69 185 7.0 15.0 0.00 0.00 0.00 28
20260903152703 69 182 6.0 16.0 0.00 0.00 0.00 27
20260903151803 68 190 5.0 11.0 0.00 0.00 0.00 28
20260903150903 67 205 4.0 9.0 0.00 0.00 0.00 27
20260903150003 66 203 3.0 7.0 0.00 0.00 0.00 27
20260903145403 66 197 4.0 10.0 0.00 0.00 0.00 28
20260903144713 65 184 3.0 6.0 0.00 0.00 0.00 26
20260903143603 63 169 2.0 5.0 0.00 0.00 0.00 28
20260903142703 61 195 2.0 7.0 0.00 0.00 0.00 28
20260903141803 58 248 1.0 4.0 0.00 0.00 0.00 32
20260903141113 57 254 2.0 4.0 0.00 0.00 0.00 33
20260903140003 57 198 2.0 5.0 0.00 0.00 0.00 36
20260903135403 56 151 3.0 6.0 0.00 0.00 0.00 34
20260903134503 52 191 1.0 6.0 0.00 0.00 0.00 34
20260903133603 51 220 0.0 2.0 0.00 0.00 0.00 38
20260903132703 51 220 0.0 3.0 0.00 0.00 0.00 40
20260903132013 50 220 1.0 3.0 0.00 0.00 0.00 40
20260903130904 49 220 0.0 2.0 0.00 0.00 0.00 41
20260903130003 49 220 1.0 3.0 0.00 0.00 0.00 42
20260903125403 49 220 1.0 3.0 0.00 0.00 0.00 41
20260903124503 49 211 1.0 4.0 0.00 0.00 0.00 42
20260903123814 49 0 0.0 0.0 0.00 0.00 0.00 43
20260903122703 48 163 0.0 3.0 0.00 0.00 0.00 43
20260903121803 48 0 0.0 0.0 0.00 0.00 0.00 44
20260903120903 48 0 0.0 0.0 0.00 0.00 0.00 42
20260903120003 49 163 0.0 1.0 0.00 0.00 0.00 41
20260903115403 50 163 0.0 1.0 0.00 0.00 0.00 40
20260903114503 51 163 0.0 2.0 0.00 0.00 0.00 39
20260903113814 52 163 0.0 1.0 0.00 0.00 0.00 37
20260903112913 53 0 0.0 0.0 0.00 0.00 0.00 36
20260903111803 56 163 1.0 3.0 0.00 0.00 0.00 32
20260903110903 58 163 1.0 3.0 0.00 0.00 0.00 31
20260903110003 59 176 2.0 6.0 0.00 0.00 0.00 28
20260903105403 59 177 2.0 9.0 0.00 0.00 0.00 28
20260903104714 59 174 2.0 9.0 0.00 0.00 0.00 27
20260903103813 59 181 2.0 5.0 0.00 0.00 0.00 27
20260903102703 60 180 2.0 7.0 0.00 0.00 0.00 27
20260903101803 60 162 2.0 6.0 0.00 0.00 0.00 27
20260903100903 60 156 3.0 7.0 0.00 0.00 0.00 27
20260903100212 60 148 3.0 7.0 0.00 0.00 0.00 27
20260903095403 59 139 3.0 7.0 0.00 0.00 0.00 28
20260903094503 55 136 2.0 5.0 0.00 0.00 0.00 32
20260903093603 52 330 0.0 2.0 0.00 0.00 0.00 36
20260903092703 52 0 0.0 0.0 0.00 0.00 0.00 39
20260903091803 52 330 1.0 4.0 0.00 0.00 0.00 40
20260903090903 52 330 1.0 4.0 0.00 0.00 0.00 42
20260903090003 53 330 1.0 3.0 0.00 0.00 0.00 42
20260903085614 54 330 1.0 3.0 0.00 0.00 0.00 41
20260903084503 54 330 1.0 3.0 0.00 0.00 0.00 37
20260903083603 53 330 1.0 3.0 0.00 0.00 0.00 37
20260903082703 53 330 1.0 2.0 0.00 0.00 0.00 38
20260903081803 53 330 0.0 2.0 0.00 0.00 0.00 37
20260903081113 54 0 0.0 0.0 0.00 0.00 0.00 36
20260903080004 54 330 1.0 2.0 0.00 0.00 0.00 35
20260903075403 55 330 1.0 2.0 0.00 0.00 0.00 33
20260903074503 56 330 2.0 4.0 0.00 0.00 0.00 33
20260903073603 56 330 3.0 7.0 0.00 0.00 0.00 34
20260903072913 56 333 4.0 6.0 0.00 0.00 0.00 34
20260903071803 56 332 3.0 7.0 0.00 0.00 0.00 35
20260903070903 55 257 2.0 7.0 0.00 0.00 0.00 33
20260903070004 56 217 2.0 4.0 0.00 0.00 0.00 35
20260903065403 57 217 2.0 4.0 0.00 0.00 0.00 32
20260903064503 58 217 2.0 3.0 0.00 0.00 0.00 29
20260903063603 59 216 1.0 4.0 0.00 0.00 0.00 27
20260903062703 59 216 1.0 4.0 0.00 0.00 0.00 26
20260903061803 60 213 2.0 4.0 0.00 0.00 0.00 26
20260903060903 61 184 3.0 7.0 0.00 0.00 0.00 26
20260903060007 61 155 2.0 5.0 0.00 0.00 0.00 25
20260903055613 62 168 2.0 5.0 0.00 0.00 0.00 25
20260903054714 61 183 3.0 6.0 0.00 0.00 0.00 25
20260903053603 62 233 1.0 4.0 0.00 0.00 0.00 24
20260903052703 64 215 1.0 5.0 0.00 0.00 0.00 23
20260903052014 65 179 2.0 5.0 0.00 0.00 0.00 24
20260903050903 65 152 3.0 7.0 0.00 0.00 0.00 21
20260903050003 64 142 3.0 6.0 0.00 0.00 0.00 22
20260903045403 64 148 2.0 5.0 0.00 0.00 0.00 23
20260903044714 64 149 2.0 4.0 0.00 0.00 0.00 23
20260903043603 63 149 2.0 5.0 0.00 0.00 0.00 23
20260903042703 63 185 1.0 4.0 0.00 0.00 0.00 23
20260903041803 63 188 1.0 3.0 0.00 0.00 0.00 23
20260903040903 63 190 2.0 5.0 0.00 0.00 0.00 23
20260903040212 64 192 2.0 4.0 0.00 0.00 0.00 24
20260903035614 64 194 3.0 5.0 0.00 0.00 0.00 23
20260903034503 65 196 3.0 6.0 0.00 0.00 0.00 22
20260903033603 65 187 3.0 6.0 0.00 0.00 0.00 22
20260903032703 65 184 3.0 5.0 0.00 0.00 0.00 23
20260903032013 65 181 3.0 6.0 0.00 0.00 0.00 23
20260903030903 66 176 3.0 6.0 0.00 0.00 0.00 22
20260903030004 67 194 4.0 10.0 0.00 0.00 0.00 22
20260903025403 68 189 5.0 11.0 0.00 0.00 0.00 21
20260903024503 68 176 5.0 11.0 0.00 0.00 0.00 21
20260903023603 68 182 4.0 6.0 0.00 0.00 0.00 21
20260903022703 69 177 3.0 7.0 0.00 0.00 0.00 21
20260903022013 69 182 3.0 7.0 0.00 0.00 0.00 20
20260903020903 70 185 4.0 11.0 0.00 0.00 0.00 20
20260903020003 72 188 5.0 11.0 0.00 0.00 0.00 19
20260903015613 72 186 5.0 12.0 0.00 0.00 0.00 19
20260903014503 73 188 7.0 20.0 0.00 0.00 0.00 18
20260903013814 74 190 7.0 15.0 0.00 0.00 0.00 18
20260903012704 75 183 9.0 17.0 0.00 0.00 0.00 17
20260903011803 75 190 9.0 19.0 0.00 0.00 0.00 17
20260903010903 76 191 9.0 19.0 0.00 0.00 0.00 17
20260903010213 76 188 11.0 28.0 0.00 0.00 0.00 16